Погода в Елеце

Погода в Елеце : погода сейчас, прогноз погоды и архив. Всё, что Вы хотите узнать о погоде в Елеце!

Хотите узнать прогноз погоды в Елеце? Тогда Вам сюда: Погода в Елеце

Поиск расширенной информации на нашем сайте:

Другие новости

Новости СМИ2

Главная страница сайта

Новости сайта

03.07.2017

Напоминаем, что на нашем специализированном сайте Метеоцентр.Азия вы можете получить высокодетализированные автоматические прогнозы погоды по пунктам России, СНГ и мира в авиационном формате (включающие направление и скорость ветра, видимость, явления погоды, количество и форму облачности, нижнюю и верхнюю границу облачности).


Погода в Елеце - сегодня

Время (UTC), дата Ветер
(°,м/с) 
Видим.   Явления Облачность Т
(°С)
Тd
(°С)
f(%) Тe
(°С)
Pmin
(гПа)
dP
(гПа)
Po
(мм)
O2
(г/м3)
Тmin Tmax R s Состояние
почвы
18 18.01.18 140 (ЮВ) 2{12}  10 км    9/0 средняя 
[Ac trans]
-2.7 -6.1 77 -4  1013.7  1.3  744  304           
21 18.01.18 140 (ЮВ) 10 км    ясно 
-5.9 -12.2 61 -9  1014.7  0.7  745  308           
00 19.01.18 130 (ЮВ) 10 км    8/0 верхняя 
[Ci fib]
-9.6 -15.4 63 -13  1015.2  0.2  745  312           
03 19.01.18 110 (В) 10 км    8/0 верхняя 
[Ci sp]
-11.7 -16.1 70 -12  1015.3  -0.1  745  315  -11.7      равномерный
сухой снег
100% 
06 19.01.18 130 (ЮВ) 10 км    9/0 средняя, верхняя 
[Ac trans|Ci sp]
-10.8 -14.4 75 -14  1014.6  -0.5  745  314           
09 19.01.18 140 (ЮВ) 10 км    9/0 верхняя 
[Ci sp]
-9.1 -14.6 64 -12  1014.7  0.2  745  312           
12 19.01.18 120 (ЮВ) 10 км    9/0 средняя, верхняя 
[Ac trans|Ci sp]
-8 -12.6 69 -12  1015.1  0.4  745  310           
15 19.01.18 130 (ЮВ) 10 км    9/0 средняя 
[Ac und]
-6.8 -11.5 69 -9  1014.9  745  309    -6.6       
18 19.01.18 130 (ЮВ) 6-11{13}  10 км    10/4 600 м средняя 
[Sc|Ac und]
-6.8 -13.5 59 -12  1013.4  -1.5  744  309           
21 19.01.18 120 (ЮВ) 4{11}  4000 м  слаб. снег  10/8 600 м средняя 
[Sc|Ac und]
-7.8 -10.5 81 -11  1013.5  744  310           
00 20.01.18 120 (ЮВ) 4000 м  слаб. снег  10/10 300 м 
[Frnb|Ns]
-8.4 -9.9 89 -11  1013.5  744  310           
03 20.01.18 130 (ЮВ) 1000 м  слаб. снег  10/10 200 м 
[Frnb|Ns]
-8.7 -10.2 89 -12  1012.1  -1.4  743  310  -8.8    10  равномерный
сухой снег
100% 
06 20.01.18 130 (ЮВ) 4000 м  слаб. снег  10/10 300 м 
[Frnb|Ns]
-8 -9.4 90 -11  1012.2  0.1  743  309           
09 20.01.18 170 (Ю) 2000 м  снег  10/10 200 м 
[Frnb|Ns]
-6.1 -7.2 92 -6  1011.6  -0.4  743  307           
12 20.01.18 170 (Ю) 2000 м  слаб. снег  10/10 200 м 
[Frnb|Ns]
-3 -3.7 95 -4  1011.2  -0.1  743  303           
15 20.01.18 200 (Ю) 10 км  {снег}  10/4 600 м средняя 
[Sc|Ac As]
-1.4 -4 82 -3  1011.3  0.3  743  301    -1.3     
18 20.01.18 200 (Ю) 10 км  {снег}  10/4 600 м средняя 
[Sc|Ac und]
-1.2 -4.8 76 -3  1011.6  0.3  743  301           
21 20.01.18 170 (Ю) 4000 м  дымка  10/4 600 м средняя 
[Sc|Ac und]
-1.6 -3.3 88 -4  1012.2  0.4  743  302           
00 21.01.18 160 (Ю) 4000 м  дымка  10/4 600 м средняя 
[Sc|Ac und]
-2 -3.2 91 -3  1011.7  -0.5  743  302           
03 21.01.18 120 (ЮВ) 4000 м  слаб. снег  10/8 600 м средняя 
[Sc|Ac und]
-2.7 -3.7 93 -2  1010.2  -1.5  742  302  -2.7    0.0  12  равномерный
сухой снег
100% 
06 21.01.18 060 (СВ) 2000 м  слаб. снег  10/10 300 м 
[Frnb|Ns]
-3.3 -3.7 97 -3  1009.8  -0.4  742  303  -3.3         
09 21.01.18 030 (СВ) 1000 м  снег  10/10 300 м 
[Frnb|Ns]
-3.4 -3.8 97 -5  1008.2  -1.6  740  302           
12 21.01.18 010 (С) 0500 м  снег  10/10 200 м 
[Frnb|Ns]
-3.8 -4.3 96 -6  1006.9  -1.3  739  303           
15 21.01.18 350 (С) 1000 м  слаб. снег  10/10 200 м 
[Frnb|Ns]
-3.9 -4.7 94 -7  1007.4  0.5  740  303    -2.5     
18 21.01.18 300 (СЗ) 4000 м  дымка{снег}  10/10 300 м 
[Sc]
-2.8 -4.4 89 -5  1008.7  1.3  741  302           
Время (UTC), дата Ветер
(°,м/с) 
Видим.   Явления Облачность Т
(°С)
Тd
(°С)
f(%) Тe
(°С)
Pmin
(гПа)
dP
(гПа)
Po
(мм)
O2
(г/м3)
Тmin Tmax R s Состояние
почвы

Для получения пояснительной информации подведите курсор к названию столбца.

ПОГОДА в Елеце - архив

Всё, что Вы хотите узнать о погоде в Елеце - удобно и подробно!

Выберите нужную дату (начиная с 1 января 2015* года) и нажмите кнопку "Найти".
Будут отображены архивные сводки погоды по пункту Елец, начиная с указанной даты.


Отображать данные в формате CSV (для использования в таблицах Excel)


Внимание! Наш архив погоды предназначен исключительно для личного некоммерческого использования в познавательных целях. Если Вам необходимы официальные справки о состоянии погоды (для производственных, юридических, коммерческих и т.п. целей), обращайтесь в органы Росгидромета.

*Примечание: данная дата относится к архиву по метеостанциям СССР (Россия, СНГ, Балтия).
Архив по метеостанциям Зарубежной Европы и Азии (кроме Китая) хранится 10 дней, по другим регионам земного шара (Китай, Африка, Америка, Австралия, Океания) - 1 день.

Елец - район местоположения метеостанции


Название, широта, долгота, высота метеостанции:
Елец 52.6°ш. 38.5°д. 168 м над ур. моря [Российская Федерация]

Дополнительная информация

В oтличие oт бoльшинства пoгoдных сайтoв мы публикуем пoдрoбную метеoинфoрмацию в детальнoм прoфессиoнальнoм фoрмате.

Характеристики температуры и влажнoсти вoздуха измеряются на высoте 2 м в тени вдали oт зданий и деревьев.
Скoрoсть ветра измеряется на высoте 10 м (на урoвне рoста челoвека скoрoсть ветра ниже в 1.5-2 раза). Если метеoстанция нахoдится в гoрoде или в лесу, тo скoрoсть ветра занижена на 2-4 м/с пo сравнению с oткрытым местoм. Скoрoсть ветра над акватoриями крупных рек и oзёр, а также на вершинах хoлмoв на 2-5 м/с выше, чем в oбычных услoвиях.
Атмoсфернoе давление в разных тoчках местнoсти мoжет значительнo oтличаться oт давления на метеoстанции, в зависимoсти oт услoвий рельефа (при пoдъёме на 10 м давление пoнижается примернo на 1 мм рт.ст.).